Date String (YYYY-MM-DD hh:mm:ss) UTC,Instrument flags,Ambient pressure (hPa),Sample flow (lpm),Bypass flow (lpm),Sample temperature (°C),Ambient temperature (°C),ASC tube jacket temperature (°C),LED temperature (°C),Box temperature (°C),Sample RH (%),Span deviation,Mass concentration (μg/m³),Mass concentration (μg/m³),Mass concentration (μg/m³)
DateTimeUTC,F1_M11,P_M11,Q1_M11,Q2_M11,T1_M11,T2_M11,T3_M11,T4_M11,T5_M11,U1_M11,ZSPAN_M11,X0_M11,X2_M11,X1_M11
2022-08-05 01:00:00,,0825.9,5.01,0.00,29.3,27.3,00.0,38.1,31.1,24.1,0001.4,0020.86,0009.11,0006.77
2022-08-05 01:01:00,,0825.8,5.00,0.00,29.3,27.5,00.0,38.1,31.1,23.8,0001.3,0021.15,0009.11,0006.77
2022-08-05 01:02:00,,0825.8,5.00,0.00,29.3,27.7,00.0,38.1,31.2,23.7,0000.9,0021.17,0009.08,0006.78
2022-08-05 01:03:00,,0825.9,5.00,0.00,29.4,27.9,00.0,38.1,31.3,23.6,0001.0,0021.03,0009.01,0006.78
2022-08-05 01:04:00,,0825.9,5.00,0.00,29.4,28.2,00.0,38.1,31.4,23.5,0000.6,0021.41,0009.00,0006.78
2022-08-05 01:05:00,,0825.9,5.00,0.00,29.5,28.1,00.0,38.1,31.4,23.5,0000.5,0022.15,0009.05,0006.79
2022-08-05 01:06:00,,0825.9,4.99,0.00,29.4,27.5,00.0,38.1,31.2,23.7,0000.7,0022.93,0009.12,0006.79
2022-08-05 01:07:00,,0825.9,5.01,0.00,29.4,27.1,00.0,38.1,31.2,23.7,0000.6,0022.33,0009.19,0006.80
2022-08-05 01:08:00,,0825.9,4.99,0.00,29.3,27.2,00.0,38.1,31.1,23.6,0000.5,0022.03,0009.19,0006.80
2022-08-05 01:09:00,,0825.9,5.02,0.00,29.3,27.3,00.0,38.1,31.1,23.7,0000.4,0022.40,0009.15,0006.79
2022-08-05 01:10:00,,0825.8,5.00,0.00,29.3,27.5,00.0,38.0,31.1,23.3,0000.5,0022.93,0009.15,0006.81
2022-08-05 01:11:00,,0825.9,5.00,0.00,29.3,27.8,00.0,38.1,31.2,23.2,0000.7,0023.80,0009.12,0006.80
2022-08-05 01:12:00,,0825.9,5.00,0.00,29.4,28.0,00.0,38.1,31.3,23.2,0000.6,0023.61,0009.10,0006.81
2022-08-05 01:13:00,,0825.9,5.00,0.00,29.4,28.2,00.0,38.1,31.4,22.8,0000.7,0023.62,0009.01,0006.79
2022-08-05 01:14:00,,0825.9,5.00,0.00,29.5,28.2,00.0,38.1,31.4,22.6,0000.3,0023.93,0009.06,0006.77
2022-08-05 01:15:00,,0826.0,5.01,0.00,29.4,27.6,00.0,38.1,31.2,22.9,0000.3,0024.31,0009.02,0006.76
2022-08-05 01:16:00,,0825.9,5.00,0.00,29.4,27.2,00.0,38.1,31.2,22.8,0000.4,0024.00,0008.93,0006.74
2022-08-05 01:17:00,,0826.0,5.00,0.00,29.4,27.2,00.0,38.1,31.2,23.1,0000.4,0022.46,0008.84,0006.74
2022-08-05 01:18:00,,0826.0,5.00,0.00,29.3,27.3,00.0,38.1,31.1,23.2,0000.7,0022.21,0008.78,0006.74
2022-08-05 01:19:00,,0826.0,5.01,0.00,29.3,27.5,00.0,38.1,31.2,23.3,0001.4,0022.22,0008.78,0006.73
2022-08-05 01:20:00,,0826.0,4.99,0.00,29.3,27.7,00.0,38.1,31.2,23.5,0001.9,0021.45,0008.80,0006.72
2022-08-05 01:21:00,,0826.0,5.00,0.00,29.4,28.0,00.0,38.1,31.3,23.6,0001.7,0020.38,0008.78,0006.72
2022-08-05 01:22:00,,0826.0,5.01,0.00,29.4,28.2,00.0,38.1,31.4,23.8,0001.8,0019.55,0008.78,0006.72
2022-08-05 01:23:00,,0826.0,5.00,0.00,29.5,28.2,00.0,38.1,31.4,23.7,0002.2,0019.44,0008.86,0006.70
2022-08-05 01:24:00,,0826.0,5.01,0.00,29.5,27.6,00.0,38.1,31.3,23.8,0002.6,0019.20,0008.92,0006.69
2022-08-05 01:25:00,,0826.0,4.99,0.00,29.4,27.2,00.0,38.1,31.2,24.1,0003.0,0020.69,0008.92,0006.67
2022-08-05 01:26:00,,0826.0,5.01,0.00,29.4,27.2,00.0,38.1,31.2,24.1,0002.9,0021.31,0008.97,0006.68
2022-08-05 01:27:00,,0825.9,4.99,0.00,29.3,27.3,00.0,38.1,31.1,24.2,0002.9,0021.86,0008.99,0006.68
2022-08-05 01:28:00,,0826.0,4.99,0.00,29.3,27.5,00.0,38.1,31.1,24.2,0002.9,0022.48,0009.03,0006.68
2022-08-05 01:29:00,,0826.0,5.01,0.00,29.3,27.7,00.0,38.1,31.2,24.5,0003.0,0023.16,0009.07,0006.68
2022-08-05 01:30:00,,0826.0,5.01,0.00,29.4,27.9,00.0,38.1,31.3,24.9,0002.8,0024.27,0009.07,0006.66
2022-08-05 01:31:00,,0825.9,4.99,0.00,29.4,28.2,00.0,38.1,31.4,25.0,0002.4,0024.55,0009.05,0006.65
2022-08-05 01:32:00,,0826.0,5.00,0.00,29.5,28.2,00.0,38.1,31.4,25.3,0002.6,0025.16,0009.09,0006.63
2022-08-05 01:33:00,,0825.9,5.01,0.00,29.4,27.6,00.0,38.1,31.3,25.5,0002.5,0025.33,0009.14,0006.63
2022-08-05 01:34:00,,0825.9,4.99,0.00,29.4,27.2,00.0,38.1,31.2,25.5,0002.9,0026.61,0009.08,0006.63
2022-08-05 01:35:00,,0825.9,5.01,0.00,29.4,27.2,00.0,38.1,31.1,25.6,0002.6,0027.70,0009.00,0006.63
2022-08-05 01:36:00,,0825.9,5.00,0.00,29.3,27.3,00.0,38.1,31.1,26.3,0002.6,0026.79,0009.04,0006.65
2022-08-05 01:37:00,,0825.9,5.00,0.00,29.3,27.5,00.0,38.1,31.1,26.7,0002.6,0026.01,0009.06,0006.65
2022-08-05 01:38:00,,0825.9,5.00,0.00,29.3,27.7,00.0,38.1,31.2,26.3,0002.8,0026.28,0009.05,0006.64
2022-08-05 01:39:00,,0825.9,5.00,0.00,29.4,27.9,00.0,38.1,31.3,25.6,0002.9,0026.60,0009.07,0006.66
2022-08-05 01:40:00,,0825.9,5.00,0.00,29.4,28.1,00.0,38.1,31.4,26.2,0002.9,0027.10,0009.01,0006.66
2022-08-05 01:41:00,,0825.9,4.99,0.00,29.4,28.2,00.0,38.1,31.4,25.8,0002.9,0026.46,0009.02,0006.67
2022-08-05 01:42:00,,0825.8,4.99,0.00,29.4,27.7,00.0,38.1,31.3,25.8,0002.9,0026.78,0009.06,0006.68
2022-08-05 01:43:00,,0825.8,5.00,0.00,29.4,27.2,00.0,38.1,31.2,26.5,0002.6,0026.28,0009.01,0006.68
2022-08-05 01:44:00,,0825.7,4.98,0.00,29.4,27.1,00.0,38.1,31.2,25.6,0002.4,0026.81,0008.94,0006.68
2022-08-05 01:45:00,,0825.8,5.01,0.00,29.3,27.2,00.0,38.1,31.2,26.6,0002.5,0025.64,0008.88,0006.67
2022-08-05 01:46:00,,0825.8,4.99,0.00,29.3,27.4,00.0,38.0,31.1,27.9,0002.2,0025.00,0008.97,0006.69
2022-08-05 01:47:00,,0825.8,5.01,0.00,29.3,27.7,00.0,38.0,31.2,27.8,0002.3,0024.80,0008.96,0006.71
2022-08-05 01:48:00,,0825.7,5.00,0.00,29.3,27.9,00.0,38.1,31.3,26.6,0002.4,0024.19,0008.87,0006.72
2022-08-05 01:49:00,,0825.8,5.00,0.00,29.4,28.1,00.0,38.1,31.4,25.7,0002.2,0023.27,0008.89,0006.74
2022-08-05 01:50:00,,0825.8,5.00,0.00,29.4,28.3,00.0,38.1,31.4,24.8,0001.6,0022.49,0008.86,0006.74
2022-08-05 01:51:00,,0825.9,5.01,0.00,29.5,28.1,00.0,38.1,31.4,24.4,0001.7,0021.35,0008.89,0006.76
2022-08-05 01:52:00,,0826.0,5.00,0.00,29.4,27.4,00.0,38.1,31.3,24.0,0001.4,0021.93,0008.86,0006.78
2022-08-05 01:53:00,,0825.9,5.01,0.00,29.4,27.1,00.0,38.1,31.2,23.9,0001.6,0021.79,0008.81,0006.78
2022-08-05 01:54:00,,0825.7,4.99,0.00,29.3,27.1,00.0,38.1,31.1,23.8,0001.6,0021.56,0008.80,0006.81
2022-08-05 01:55:00,,0826.1,5.00,0.00,29.3,27.3,00.0,38.1,31.1,23.8,0002.1,0020.41,0008.80,0006.82
2022-08-05 01:56:00,,0826.2,5.00,0.00,29.3,27.5,00.0,38.1,31.1,23.4,0002.2,0020.94,0008.83,0006.86
2022-08-05 01:57:00,,0826.3,5.01,0.00,29.3,27.7,00.0,38.1,31.2,23.4,0002.3,0020.90,0008.77,0006.86
2022-08-05 01:58:00,,0826.0,5.00,0.00,29.3,27.9,00.0,38.1,31.3,23.1,0001.8,0020.39,0008.80,0006.84
2022-08-05 01:59:00,,0826.0,4.99,0.00,29.4,28.1,00.0,38.1,31.3,22.9,0001.9,0020.21,0008.84,0006.85
